^^
North Bend WA Weather Station Historical Data
Daily Summary for December 02, 2021 Units:  English    Metric   Both
Daily Weekly Monthly Yearly Custom
  High: Low: Average:
Temperature: 56 °F 45 °F 50.2 °F
Dew Point: 51 °F 44 °F 47.8 °F
Humidity: 96% 81% 91%
Wind Speed: 9mph 0mph 3.1mph
Wind Gust: 17mph - -
Wind- - WNW
Pressure: 30.23 in 30.11 in -
Precipitation: 0.11 in    
Historical Graphs
 
 
Tabular Data for December 02, 2021
Time Temperature Dew Point Pressure Wind Wind Speed Wind Gust Humidity Rainfall Rate (Hourly) solar
00:04 55 °F 51 °F 30.11 in NW 5 mph 10 mph 87% 0 in 0 W/m2
00:09 55 °F 51 °F 30.11 in N 5 mph 12 mph 85% 0 in 0 W/m2
00:14 55 °F 51 °F 30.11 in NW 2 mph 12 mph 86% 0 in 0 W/m2
00:19 55 °F 51 °F 30.12 in NW 6 mph 12 mph 85% 0 in 0 W/m2
00:24 55 °F 51 °F 30.11 in W 3 mph 12 mph 85% 0 in 0 W/m2
00:29 55 °F 50 °F 30.11 in NW 6 mph 13 mph 84% 0 in 0 W/m2
00:34 55 °F 50 °F 30.11 in WNW 4 mph 13 mph 83% 0 in 0 W/m2
00:39 55 °F 50 °F 30.11 in WNW 7 mph 12 mph 83% 0 in 0 W/m2
00:44 55 °F 50 °F 30.11 in W 6 mph 15 mph 82% 0 in 0 W/m2
00:49 55 °F 50 °F 30.11 in WNW 5 mph 15 mph 82% 0 in 0 W/m2
00:54 55 °F 50 °F 30.11 in W 3 mph 13 mph 82% 0 in 0 W/m2
00:59 55 °F 50 °F 30.11 in SSW 3 mph 9 mph 81% 0 in 0 W/m2
01:04 56 °F 50 °F 30.11 in WNW 9 mph 15 mph 81% 0 in 0 W/m2
01:09 56 °F 50 °F 30.11 in SSE 4 mph 17 mph 82% 0 in 0 W/m2
01:14 55 °F 50 °F 30.12 in WSW 2 mph 9 mph 83% 0 in 0 W/m2
01:19 55 °F 50 °F 30.12 in WNW 1 mph 6 mph 83% 0 in 0 W/m2
01:24 55 °F 50 °F 30.13 in WNW 4 mph 7 mph 83% 0 in 0 W/m2
01:29 55 °F 50 °F 30.13 in NW 5 mph 9 mph 85% 0 in 0 W/m2
01:34 54 °F 50 °F 30.13 in NW 3 mph 10 mph 86% 0 in 0 W/m2
01:39 54 °F 50 °F 30.13 in NNW 4 mph 10 mph 87% 0 in 0 W/m2
01:44 53 °F 50 °F 30.13 in NNW 7 mph 12 mph 88% 0 in 0 W/m2
01:49 53 °F 50 °F 30.13 in NW 4 mph 12 mph 88% 0 in 0 W/m2
01:54 53 °F 50 °F 30.13 in WNW 3 mph 8 mph 89% 0 in 0 W/m2
01:59 52 °F 50 °F 30.13 in WNW 3 mph 7 mph 89% 0 in 0 W/m2
02:04 52 °F 49 °F 30.13 in WNW 2 mph 7 mph 89% 0 in 0 W/m2
02:09 52 °F 49 °F 30.13 in WNW 3 mph 5 mph 90% 0 in 0 W/m2
02:14 52 °F 49 °F 30.13 in W 3 mph 6 mph 90% 0 in 0 W/m2
02:19 52 °F 49 °F 30.13 in W 3 mph 6 mph 90% 0 in 0 W/m2
02:24 52 °F 49 °F 30.13 in NNW 3 mph 6 mph 90% 0 in 0 W/m2
02:29 51 °F 49 °F 30.13 in W 3 mph 6 mph 90% 0 in 0 W/m2
02:34 51 °F 48 °F 30.13 in NW 5 mph 9 mph 89% 0 in 0 W/m2
02:39 51 °F 48 °F 30.14 in WNW 4 mph 9 mph 89% 0 in 0 W/m2
02:44 51 °F 48 °F 30.14 in WNW 3 mph 6 mph 90% 0 in 0 W/m2
02:49 51 °F 48 °F 30.14 in W 3 mph 5 mph 90% 0 in 0 W/m2
02:54 51 °F 48 °F 30.13 in W 3 mph 5 mph 90% 0 in 0 W/m2
02:59 51 °F 48 °F 30.14 in W 4 mph 9 mph 90% 0 in 0 W/m2
03:04 51 °F 48 °F 30.14 in NW 3 mph 9 mph 90% 0 in 0 W/m2
03:09 51 °F 48 °F 30.15 in W 4 mph 9 mph 91% 0 in 0 W/m2
03:14 51 °F 48 °F 30.15 in WNW 3 mph 9 mph 91% 0 in 0 W/m2
03:19 50 °F 48 °F 30.16 in W 3 mph 5 mph 91% 0 in 0 W/m2
03:24 50 °F 48 °F 30.17 in W 2 mph 5 mph 91% 0 in 0 W/m2
03:29 50 °F 48 °F 30.17 in WNW 3 mph 7 mph 91% 0 in 0 W/m2
03:34 50 °F 48 °F 30.17 in NW 5 mph 8 mph 91% 0 in 0 W/m2
03:39 50 °F 48 °F 30.16 in NNW 5 mph 10 mph 90% 0 in 0 W/m2
03:44 50 °F 48 °F 30.15 in WNW 3 mph 10 mph 90% 0 in 0 W/m2
03:49 50 °F 48 °F 30.15 in WNW 3 mph 6 mph 90% 0 in 0 W/m2
03:54 50 °F 48 °F 30.16 in W 3 mph 6 mph 91% 0.01 in 0 W/m2
03:59 50 °F 48 °F 30.16 in WNW 3 mph 6 mph 92% 0.03 in 0 W/m2
04:04 50 °F 48 °F 30.16 in W 1 mph 4 mph 93% 0.04 in 0 W/m2
04:09 50 °F 48 °F 30.16 in W 1 mph 4 mph 93% 0.04 in 0 W/m2
04:14 50 °F 48 °F 30.16 in Calm   3 mph 94% 0.05 in 0 W/m2
04:19 50 °F 48 °F 30.16 in WNW 1 mph 3 mph 94% 0.05 in 0 W/m2
04:24 49 °F 48 °F 30.16 in NW 3 mph 5 mph 94% 0.05 in 0 W/m2
04:29 49 °F 48 °F 30.17 in W 2 mph 5 mph 95% 0.05 in 0 W/m2
04:34 49 °F 48 °F 30.17 in NW 2 mph 5 mph 95% 0.05 in 0 W/m2
04:39 49 °F 48 °F 30.17 in NNW 2 mph 5 mph 95% 0.05 in 0 W/m2
04:44 49 °F 48 °F 30.17 in NNW 2 mph 5 mph 96% 0.05 in 0 W/m2
04:49 49 °F 48 °F 30.17 in NNW 2 mph 5 mph 96% 0.05 in 0 W/m2
04:54 49 °F 48 °F 30.16 in NNW 2 mph 5 mph 96% 0.05 in 0 W/m2
04:59 49 °F 48 °F 30.16 in WNW 1 mph 5 mph 96% 0.04 in 0 W/m2
05:04 49 °F 48 °F 30.16 in NNW 2 mph 4 mph 96% 0.02 in 0 W/m2
05:09 49 °F 48 °F 30.16 in NW 2 mph 5 mph 96% 0.01 in 0 W/m2
05:14 49 °F 48 °F 30.16 in NW 2 mph 5 mph 96% 0.01 in 0 W/m2
05:19 49 °F 48 °F 30.16 in NW 2 mph 5 mph 96% 0 in 0 W/m2
05:24 49 °F 48 °F 30.16 in WNW 2 mph 5 mph 96% 0 in 0 W/m2
05:29 49 °F 48 °F 30.17 in NW 3 mph 5 mph 96% 0 in 0 W/m2
05:34 49 °F 48 °F 30.18 in NW 3 mph 6 mph 96% 0 in 0 W/m2
05:39 49 °F 48 °F 30.18 in WNW 2 mph 6 mph 96% 0 in 0 W/m2
05:44 49 °F 48 °F 30.18 in W 1 mph 4 mph 96% 0 in 0 W/m2
05:49 49 °F 48 °F 30.18 in WNW 1 mph 3 mph 96% 0.01 in 0 W/m2
05:54 49 °F 48 °F 30.18 in WNW 1 mph 2 mph 96% 0.01 in 0 W/m2
05:59 49 °F 48 °F 30.18 in WNW 2 mph 4 mph 96% 0.01 in 0 W/m2
06:04 49 °F 47 °F 30.18 in W 2 mph 4 mph 96% 0.01 in 0 W/m2
06:09 48 °F 47 °F 30.18 in WNW 2 mph 4 mph 96% 0.01 in 0 W/m2
06:14 48 °F 47 °F 30.19 in W 4 mph 9 mph 96% 0.01 in 0 W/m2
06:19 48 °F 47 °F 30.18 in WNW 3 mph 9 mph 95% 0.03 in 0 W/m2
06:24 48 °F 46 °F 30.19 in NW 4 mph 9 mph 94% 0.04 in 0 W/m2
06:29 48 °F 46 °F 30.19 in NW 3 mph 6 mph 93% 0.05 in 0 W/m2
06:34 47 °F 46 °F 30.19 in WNW 3 mph 6 mph 93% 0.05 in 0 W/m2
06:39 47 °F 45 °F 30.19 in WNW 4 mph 10 mph 93% 0.05 in 0 W/m2
06:44 47 °F 45 °F 30.2 in W 3 mph 10 mph 93% 0.05 in 0 W/m2
06:49 47 °F 45 °F 30.2 in W 3 mph 5 mph 94% 0.05 in 0 W/m2
06:54 46 °F 45 °F 30.2 in WNW 3 mph 5 mph 94% 0.04 in 0 W/m2
06:59 46 °F 45 °F 30.2 in WNW 3 mph 5 mph 94% 0.04 in 0 W/m2
07:04 46 °F 45 °F 30.2 in W 2 mph 4 mph 94% 0.04 in 0 W/m2
07:09 46 °F 45 °F 30.2 in W 4 mph 6 mph 95% 0.04 in 0 W/m2
07:14 46 °F 45 °F 30.2 in W 3 mph 7 mph 95% 0.04 in 0 W/m2
07:19 46 °F 44 °F 30.2 in W 2 mph 7 mph 95% 0.03 in 0 W/m2
07:24 46 °F 44 °F 30.21 in WNW 3 mph 5 mph 95% 0.01 in 0 W/m2
07:29 46 °F 44 °F 30.22 in W 4 mph 6 mph 95% 0.01 in 0 W/m2
07:34 46 °F 44 °F 30.22 in W 3 mph 6 mph 95% 0 in 0 W/m2
07:39 45 °F 44 °F 30.22 in W 4 mph 7 mph 95% 0 in 0 W/m2
07:44 45 °F 44 °F 30.22 in W 2 mph 7 mph 95% 0.01 in 0 W/m2
07:49 45 °F 44 °F 30.23 in W 2 mph 4 mph 95% 0.01 in 0 W/m2
07:54 45 °F 44 °F 30.23 in WNW 2 mph 4 mph 95% 0.01 in 6.8 W/m2
07:59 45 °F 44 °F 30.23 in WNW 3 mph 4 mph 96% 0.01 in 13.2 W/m2
08:04 45 °F 44 °F 30.23 in W 3 mph 5 mph 96% 0.01 in 22 W/m2
North Bend WA Weather
Compliments of Weather Underground - 12.6 mb